Regional Weather Roundup
Issued by NWS Wakefield, VA

Home | Current Version | Previous Version | Graphics & Text | Print | Product List | Glossary On
Versions: 1 2 3 4 5 6 7 8 9 10 11 12 13 14 15 16 17 18 19 20 21 22 23 24 25 26 27
000
ASUS41 KAKQ 220614
RWRAKQ

REGIONAL WEATHER ROUNDUP
NATIONAL WEATHER SERVICE WAKEFIELD VA
200 AM EDT TUE MAY 22 2018

Note: "fair" indicates few or no clouds below 12,000 feet with no
significant weather and/or obstructions to visibility. * = Denotes
station may not report precipitation (e.g., rain,snow,etc.),
thunder or fog.

VAZ042-051-052>054-056-220700-
NORTHERN VIRGINIA

CITY           SKY/WX    TMP DP  RH WIND       PRES   REMARKS
WASH NATIONAL  CLOUDY    67  59  75 S6        30.14F
DULLES         CLOUDY    68  61  78 S6        30.13F
FORT BELVOIR   NOT AVBL
QUANTICO       FAIR      67  62  84 SE7       30.14F
FREDERICKSBRG* CLOUDY    67  61  83 CALM      30.13F
STAFFORD*      FAIR      65  64  97 CALM      30.18S
WARRENTON      CLOUDY    68  60  74 E6        30.12F
CULPEPER*      CLOUDY    68  61  77 SE3       30.13F
MANASSAS*      CLOUDY    67  62  84 CALM      30.14F
LEESBURG*      CLOUDY    70  64  83 S6        30.14F
WINCHESTER     LGT RAIN  66  64  94 SW7       30.13F
FRONT ROYAL*   FAIR      68  64  88 S5        30.11F
LURAY*         FAIR      66  64  94 CALM      30.12F
$$

VAZ048-049-060>072-079>083-220700-
CENTRAL AND SOUTH CENTRAL VIRGINIA

CITY           SKY/WX    TMP DP  RH WIND       PRES   REMARKS
RICHMOND       CLOUDY    67  61  81 SE5       30.14F
CHESTERFIELD*  CLOUDY    67  61  81 E3        30.15S
PETERSBURG*    CLOUDY    65  60  82 CALM      30.14F
HANOVER        CLOUDY    67  60  78 CALM      30.15F
TAPPAHANNOCK*  NOT AVBL
QUINTON*       CLOUDY    65  61  87 CALM      30.13F
CHARLOTTSVILLE CLOUDY    71  67  87 S7        30.12F
GORDONSVILLE*  CLOUDY    68  66  93 CALM      30.12F
ORANGE*        CLOUDY    66  61  82 SE3       30.13F
LOUISA*        CLOUDY    67  62  85 SE6       30.17F
BUMPASS*       CLOUDY    66  61  83 S6        30.14F
FARMVILLE*     CLOUDY   N/A N/A N/A CALM      30.12F
CREWE*         FAIR      65  65 100 CALM      30.14F
FORT PICKETT*  FAIR      64  64 100 SE3       30.14F
CHASE CITY*    CLOUDY    66  66 100 CALM      30.13F
CLARKSVILLE*   CLOUDY    68  68 100 CALM      30.12F
SOUTH HILL*    CLOUDY    64  64 100 CALM      30.19F
LAWRENCEVILLE* CLOUDY    64  63  96 CALM      30.13F
EMPORIA*       CLOUDY    63  63 100 CALM      30.15F
$$

VAZ088>098-220700-
SOUTHEAST VIRGINIA

CITY           SKY/WX    TMP DP  RH WIND       PRES   REMARKS
NORFOLK        CLOUDY    68  64  87 CALM      30.13F
VIRGINIA BEACH CLOUDY    66  64  93 E5        30.13F
NORFOLK NAVAL  CLOUDY    67  62  84 E3        30.15F
WEST POINT*    FAIR      65  60  85 E5        30.15F
SALUDA*        CLOUDY    67  62  86 CALM      30.14F
NEWPORT NEWS   CLOUDY    67  62  84 E5        30.13F
LANGLEY AFB    CLOUDY    67  63  87 S5        30.14F
FORT EUSTIS    CLOUDY    67  62  84 CALM      30.11F
WILLIAMSBURG*  MOCLDY    68  63  83 CALM      30.15S
HR EXEC AP*    CLOUDY    66  63  90 E3        30.14F
FRANKLIN*      CLOUDY    65  64  97 E3        30.14F
US460-WAKEFLD  CLOUDY    66  62  87 CALM      30.13F
$$

VAZ020-022-025-037-045-220700-
WEST CENTRAL AND SOUTHWEST VIRGINIA

CITY           SKY/WX    TMP DP  RH WIND       PRES   REMARKS
STAUNTON*      DRIZZLE   64  64  98 S6        30.17S
WAYNESBORO*    CLOUDY    64  64  99 CALM      30.16F
HOT SPRINGS VA DRIZZLE   62  61  99 S9        30.23F
LYNCHBURG      CLOUDY    67  66  97 CALM      30.15S
DANVILLE       MOCLDY    68  68 100 NE3       30.13F
SOUTH BOSTON*  CLOUDY    68  66  94 CALM      30.13F
MARTINSVILLE   MOCLDY    65  65  97 CALM      30.17F FOG
ROANOKE        RAIN      67  65  93 CALM      30.17F FOG
BLACKSBURG     FOG       65  65 100 E5        30.21F VSB 3/4
DUBLIN*        CLOUDY    66  66 100 CALM      30.19F FOG
MARION*        CLOUDY    65  65  99 CALM      30.22S
HILLSVILLE*    FAIR      62  61  96 CALM      30.19F
RICHLANDS*     MOCLDY    66  29  24 CALM      30.17F
WISE*          CLOUDY    64  64 100 S3        30.18F
ABINGDON*      CLOUDY    67  66  97 CALM      30.16F
$$

MDZ021>025-VAZ099-100-220700-
SOUTHERN MARYLAND AND THE DELMARVA PENINSULA

CITY           SKY/WX    TMP DP  RH WIND       PRES   REMARKS
PATUXENT RIVER MOCLDY    69  59  70 S3        30.14F
BAY BRIDGE APT CLOUDY    68  61  77 CALM      30.15F
LEONARDTOWN    MOCLDY    63  59  88 CALM      30.16F
DOVER          FAIR      59  56  91 CALM      30.15F
GEORGETOWN     CLOUDY    60  57  89 CALM      30.16S
EASTON         MOCLDY    66  56  71 CALM      30.19S
CAMBRIDGE      CLOUDY    64  59  82 CALM      30.15F
SALISBURY      CLOUDY    61  59  93 CALM      30.15F
TANGIER        NOT AVBL
OCEAN CITY     CLOUDY    59  59 100 CALM      30.16S
WALLOPS ISLAND FAIR      64  59  83 E6        30.16S
ACCOMACK*      MOCLDY    63  59  89 CALM      30.15S
$$

NCZ012>017-030>032-220700-
NORTH CENTRAL AND EASTERN NORTH CAROLINA

CITY           SKY/WX    TMP DP  RH WIND       PRES   REMARKS
ROANOKE RAPIDS FOG       66  66 100 CALM      30.13F VSB 1/4
RALEIGH        MOCLDY    69  69 100 CALM      30.11F
ELIZABETH CITY CLOUDY    69  69 100 NE6       30.13F
AHOSKIE*       DRZL/FOG  65  65 100 CALM      30.14F VSB 1/4
EDENTON*       CLOUDY    70  69  95 CALM      30.13F FOG
CURRITUCK*     NOT AVBL
KILL DEVIL HLS FOG       64  64 100 CALM      30.11F VSB 1/2
MANTEO         FAIR      66  66  99 CALM      30.13S
CAPE HATTERAS  FAIR      73  72  96 SW9       30.13F
TARBORO*       NOT AVBL
GOLDSBORO      LGT RAIN  70  68  94 CALM      30.11F
WASHINGTON     FAIR      68  67  97 CALM      30.13F
GREENVILLE     FAIR      70  70 100 CALM      30.13F
NEW BERN       FAIR      68  68 100 CALM      30.14F
WILMINGTON     FAIR      73  70  90 SW5       30.14S
$$

VAZ048-220700-
ELSEWHERE

CITY           SKY/WX    TMP DP  RH WIND       PRES   REMARKS
HARRISBURG PA  CLOUDY    66  60  81 SE3       30.12S
BALTIMORE      MOCLDY    66  58  75 SW3       30.14F
ANNAPOLIS      CLOUDY    69  57  65 CALM      30.14F
ANDREWS AFB    CLOUDY    64  58  80 CALM      30.14F
PHILADELPHIA   MOCLDY    62  53  72 S5        30.16F
HENDERSON NC   CLOUDY    65  64  97 CALM      30.13F FOG
GREENSBORO     CLOUDY    68  68 100 SW6       30.13F
ROCKY MOUNT    CLOUDY    69  69 100 CALM      30.12F FOG
$$

VAZ100-220700-
MARINE

STATION/POSITION TIME  TEMP    WIND        PRES    WAVE   SWELL
                       AIR SEA DIR/SP/G            HT/PER HT/PER
                 (UTC) (F)     (DEG/KT/KT) (MB)    (FT/S) (FT/S)
BRANDYWINE LGT   0536   63     190/  4/  4 1021.6F
CAPE MAY NJ      0548   58 65  100/  2/  3 1020.7F
LEWES DE         0536   60 63  140/  2/  2 1021.1F
15NM E FENWICK I 0550   56 58  100/  2/  4 1021.6F   3/ 8   2/ 8
OCEAN-CITY-INLET 0536   61 62   CALM  /  1 1021.8R
WACHAPREAGUE VA  0548   65 73   70/  4/  5 1020.9F
THOMAS POINT MD  0600   67 67  230/  6/  6 1021.8F
COVE POINT MD    0548   68     190/ 12/ 12 1021.4F
SOLOMONS ISLAND  0548   67 69  160/  6/  6 1020.4F
BISHOPS HEAD MD  0548   69 76  150/  9/ 10 1021.4F
PINEY POINT MD   0548          170/  8/ 10   N/A
CAMBRIDGE MD     0548   66 72              1021.9F
LEWISETTA VA     0548   67 74  160/  4/  5 1020.7F
RAPPAHANNOCK LGT 0548          120/  7/  8 1021.3F
YORK RVR RNG VA  0548   68     140/  8/  9 1021.0F
YORKTOWN VA      0548   68 73  130/  7/  9 1020.1F
DOMINION TERM VA 0548   68      CALM  /  4 1020.7F
KIPTOPEKE VA     0542      69  110/  5/  6   N/A
CAPE HENRY VA    0548   66     140/  4/  5   N/A
WILLOUBY STN VA  0548          120/  5/  5   N/A
S CRANEY ISL VA  0548   67      90/  3/  4 1020.4F
CAPE HENRY BUOY  0600      66                N/A     2/ 9
64NM E OF VA BCH 0550   64 67   80/ 12/ 14 1020.6F   3/ 9   3/ 9
DUCK PIER NC     0548   67 68  130/  4/  5 1019.7F
44100 DUCK FRF   0545      67                N/A     3/ 9
44056 DUCK FRF   0530      66                N/A     3/ 9
OREGON INLET NC  0542   75 78  220/ 11/ 12 1019.7F
HATTERAS NC      0548   73 77  230/  7/  9 1020.0F
DIAMOND SHLS NC  0600   75 74  240/ 10/ 14 1020.7
CAPE LOOKOUT NC  0600          240/  6/  8 1020.9F
$$




USA.gov is the U.S. government's official web portal to all federal, state and local government web resources and services.